THORAD AGENA D DEB, 4819

Orbit data source: Space-Track

THORAD AGENA D DEB, 4819 is space debris in SSO originally from a launch on Wed, 08 Apr 1970 UTC launched from the Air Force Western Test Range (AFWTR). Debris objects in space refer to the collection of defunct objects orbiting the Earth. Examples of debris include non-operational satellites, rocket bodies, and fragments generated from explosions, collisions, or faulty payload assembly.

Loading next visibility...
Identifier
4819, 1970-025EA
Orbit
SSO
Country
Flag of USUS
Related business
Manufacturer
Unknown
Mission
Spacecraft
Bus & Motor
Unknown
Mass
Unknown
Launch date (UTC)
1970-04-08 (56 years ago)
Launch vehicle
Unknown
Launch site
Air Force Western Test Range (AFWTR)
Object type
Payload
Rocket body
Debris
Shape & HBR
Unknown shape, 0.1 m
Radar Cross Section
Small (<0.1 m²)

Expand to show TLE details & history
Last TLE update: 8 hours ago

TLE from 8 hours ago
0 THORAD AGENA D DEB
1  4819U 70025EA  26126.99508332  .00004798  00000-0  15735-2 0  9993
2  4819 100.1021 140.4007 0030506  34.7654 325.5514 14.38694161838241
Epoch: 2026-05-06T23:52Z
TLE epoch observation values (Epoch: 2026-05-06T23:52:55.198Z)
Latitude
0.00001°
Longitude
-82.67687°
Altitude
747.762 km
Speed
7.49 km/s
True Right ascension
09h 21m 36s
True Declination
0° 00' 00"
Sunlit
Object was in daylight at epoch
Visualization orbit readout
Latitude
Unknown
Longitude
Unknown
Altitude
Unknown
Speed
Unknown
Apparent Right ascension
Unknown
Apparent Declination
Unknown
Sunlit
N/A
Visualization observer readout
Local Sidereal Time
16:20:08
Azimuth
Unknown
Elevation
Unknown
Doppler factor
Unknown
Orbital elements
Apogee altitude
781.798 km
Perigee altitude
738.247 km
Semi-major axis
7,138.159 km
Eccentricity
0.00305
Inclination
100.1021°
RAAN
140.4007°
Arg. of periapsis
34.7654°
True anomaly
325.35303°
Mean anomaly
325.5514°
Eccentric anomaly
325.45228°
Mean motion
3.59885 °/min
Orbital period
100.03 mins
BSTAR
0.0015735
Loading maneuver chart data...
Computing Atmospheric mass density...

Documentation

Showing up to 5 results
|